Weather observations for the past three days for
Fosston, Fosston Municipal Airport
Metric (Imperial)
Date Time (cdt) Wind (kph) Vis. (km) Weather Sky Cond. Temperature (ºC) Relative Humidity Wind Chill (°C) Heat Index (°C) Pressure Precipitation (cm)
Air Dwpt 6 hour altimeter (cm) sea level (mb) 1 hr 3 hr 6 hr
Max. Min.
04 04:35 W 28 G 33 16.09 NULL NULL 7 3 76% 3 74.6 0.0
04 04:15 W 22 16.09 NULL NULL 7 3 76% 4 74.6 0.0
04 03:55 W 22 G 28 16.09 NULL NULL 6 3 81% 2 74.57 0.0
04 03:35 W 17 G 28 11.27 Heavy Rain NULL 6 4 87% 3 74.6 0.0
04 03:15 NW 26 G 41 16.09 Rain NULL 7 3 76% 3 74.65 0.0
04 02:55 NW 24 16.09 Light Rain NULL 8 3 71% 5 74.68 0.0
04 02:35 NW 30 G 41 16.09 NULL NULL 8 2 66% 4 74.68 0.0
04 02:15 N 35 G 44 16.09 Breezy NULL 9 2 62% 5 74.68 0.0
04 01:55 N 43 G 56 16.09 Windy NULL 10 2 58% 6 74.65 0.0
04 01:35 NW 35 G 56 16.09 Breezy NULL 12 3 54% 74.6 0.0
04 01:15 NW 28 G 41 16.09 NULL NULL 14 2 44% 74.55 0.0
04 00:55 W 20 G 28 16.09 Light Drizzle NULL 14 1 41% 74.47 0.0
04 00:35 SW 19 16.09 NULL NULL 15 1 39% 74.45 0.0
04 00:15 SW 26 16.09 NULL NULL 15 0 36% 74.47 0.0
03 23:55 W 26 G 41 16.09 Light Drizzle NULL 15 0 36% 74.57 0.0
03 23:35 W 26 G 41 16.09 Light Rain NULL 15 -1 34% 74.55 0.0
03 23:15 SW 35 G 44 16.09 Breezy NULL 15 -1 34% 74.5 0.0
03 22:55 SW 35 G 46 16.09 Breezy NULL 15 -1 34% 74.52 0.0
03 22:35 SW 35 G 44 16.09 Breezy NULL 15 -2 31% 74.57 0.0
03 22:15 SW 30 16.09 NULL NULL 15 -1 34% 74.6 0.0
03 21:55 S 28 16.09 NULL NULL 15 -1 34% 74.65 0.0
03 21:36 SW 28 16.09 NULL NULL 16 -1 31% 74.68 0.0
03 21:15 SW 24 16.09 NULL NULL 16 -1 31% 74.73 0.0
03 20:55 SW 20 16.09 NULL NULL 16 -1 31% 74.75 0.0
03 20:35 SW 22 16.09 NULL NULL 17 -1 30% 74.78 0.0
03 20:15 SW 20 16.09 NULL NULL 18 -2 26% 74.83 0.0
03 19:55 SW 24 16.09 NULL NULL 18 -2 26% 74.85 0.0
03 19:35 SW 26 16.09 NULL NULL 19 -2 24% 74.9 0.0
03 19:15 SW 22 G 35 16.09 NULL NULL 19 -2 24% 74.93 0.0
03 18:55 SW 28 G 43 16.09 NULL NULL 20 -2 23% 74.96 0.0
03 18:35 W 24 G 39 16.09 NULL NULL 19 -3 22% 75.01 0.0
03 18:15 W 30 G 46 16.09 NULL NULL 19 -3 22% 75.03 0.0
03 17:55 W 26 G 37 16.09 NULL NULL 20 -3 21% 75.06 0.0
03 17:35 W 30 G 43 16.09 NULL NULL 21 -3 20% 75.11 0.0
03 17:15 W 30 G 43 16.09 NULL NULL 21 -3 20% 75.13 0.0
03 16:55 W 31 G 39 16.09 NULL NULL 20 -3 21% 75.16 0.0
03 16:35 W 33 G 41 16.09 Breezy NULL 20 -2 23% 75.18 0.0
03 16:15 W 26 G 39 16.09 NULL NULL 19 -2 24% 75.23 0.0
03 15:55 W 31 G 44 16.09 NULL NULL 19 -2 24% 75.26 0.0
03 15:35 W 30 G 44 16.09 NULL NULL 19 -2 24% 75.31 0.0
03 15:15 W 26 G 35 16.09 NULL NULL 19 -2 24% 75.34 0.0
03 14:55 W 28 G 37 16.09 NULL NULL 19 -4 21% 75.36 0.0
03 14:35 W 22 G 33 16.09 NULL NULL 18 -4 22% 75.39 0.0
03 14:15 W 33 16.09 Breezy NULL 17 -4 24% 75.44 0.0
03 13:55 W 28 16.09 NULL NULL 17 -4 24% 75.49 0.0
03 13:35 W 31 G 41 16.09 NULL NULL 16 -3 27% 75.51 0.0
03 13:16 W 19 G 31 16.09 NULL NULL 16 -3 27% 75.54 0.0
03 12:55 W 26 G 39 16.09 NULL NULL 16 -3 27% 75.59 0.0
03 12:35 W 28 G 33 16.09 NULL NULL 14 -3 31% 75.62 0.0
03 12:15 W 26 16.09 NULL NULL 14 -3 31% 75.64 0.0
03 11:55 W 22 16.09 NULL NULL 14 -4 29% 75.64 0.0
03 11:35 W 19 16.09 NULL NULL 13 -4 31% 75.67 0.0
03 11:15 W 13 16.09 NULL NULL 13 -5 28% 75.69 0.0
03 10:55 W 17 16.09 NULL NULL 12 -4 33% 75.72 0.0
03 10:35 W 9 16.09 NULL NULL 12 -4 33% 75.72 0.0
03 10:15 NW 11 16.09 NULL NULL 11 -5 32% 75.72 0.0
03 09:55 NW 13 16.09 NULL NULL 11 -4 35% 75.72 0.0
03 09:35 N 7 16.09 NULL NULL 10 -3 40% 9 75.74 0.0
03 09:15 NW 9 16.09 NULL NULL 9 -2 46% 8 75.74 0.0
03 08:55 NW 9 16.09 NULL NULL 7 -1 57% 5 75.74 0.0
03 08:35 NW 9 16.09 NULL NULL 6 -1 61% 4 75.74 0.0
03 08:15 NW 13 16.09 NULL NULL 5 -1 66% 2 75.74 0.0
03 07:55 NW 11 16.09 NULL NULL 5 -1 66% 3 75.74 0.0
03 07:35 NW 7 16.09 NULL NULL 4 -1 70% 2 75.74 0.0
03 07:15 NW 6 16.09 NULL NULL 3 -1 75% 75.72 0.0
03 06:55 Calm 16.09 NULL NULL 1 -2 81% 75.69 0.0
03 06:35 N 6 16.09 NULL NULL 2 -2 75% 75.67 0.0
03 06:15 NW 7 16.09 NULL NULL 2 -2 75% 0 75.67 0.0
03 05:55 N 9 16.09 NULL NULL 2 -2 75% -0 75.67 0.0
03 05:35 N 9 16.09 NULL NULL 3 -1 75% 1 75.67 0.0
03 05:15 N 13 16.09 NULL NULL 3 -1 75% 0 75.67 0.0
03 04:55 N 13 16.09 NULL NULL 3 -1 75% 0 75.67 0.0
03 04:35 NW 13 16.09 NULL NULL 4 1 81% 1 75.67 0.0
03 04:15 N 13 16.09 NULL NULL 4 1 81% 1 75.64 0.0
03 03:55 N 9 16.09 NULL NULL 4 1 81% 2 75.62 0.0
03 03:35 NW 9 16.09 NULL NULL 3 1 87% 1 75.62 0.0
03 03:15 N 11 16.09 NULL NULL 4 1 81% 2 75.62 0.0
03 02:55 NW 9 16.09 NULL NULL 4 2 87% 2 75.62 0.0
03 02:35 NW 7 16.09 NULL NULL 4 1 81% 2 75.62 0.0
03 02:15 NW 7 16.09 NULL NULL 4 2 87% 2 75.62 0.0
03 01:55 NW 11 16.09 NULL NULL 3 1 87% 0 75.62 0.0
03 01:35 NW 7 16.09 NULL NULL 4 1 81% 2 75.59 0.0
03 01:15 Calm 16.09 NULL NULL 6 1 71% 75.59 0.0
03 00:55 Calm 16.09 NULL NULL 6 2 76% 75.59 0.0
03 00:35 N 9 16.09 NULL NULL 6 1 71% 4 75.59 0.0
03 00:15 Calm 16.09 NULL NULL 6 2 76% 75.57 0.0
02 23:55 NE 6 16.09 NULL NULL 7 2 71% 75.57 0.0
02 23:35 E 9 16.09 NULL NULL 8 2 66% 7 75.57 0.0
02 23:15 NE 11 16.09 NULL NULL 9 2 62% 8 75.57 0.0
02 22:55 NE 11 16.09 NULL NULL 9 2 62% 8 75.57 0.0
02 22:35 NE 15 16.09 NULL NULL 9 3 66% 7 75.54 0.0
02 22:15 NE 22 G 31 16.09 NULL NULL 9 3 66% 6 75.54 0.0
02 21:55 NE 24 G 30 16.09 NULL NULL 10 3 62% 7 75.51 0.0
02 21:35 NE 19 G 28 16.09 NULL NULL 10 3 62% 8 75.49 0.0
02 21:15 NE 19 16.09 NULL NULL 11 0 47% 75.44 0.0
02 20:55 E 7 16.09 NULL NULL 12 0 44% 75.41 0.0
02 20:35 E 9 16.09 NULL NULL 13 0 41% 75.44 0.0
02 20:15 E 6 16.09 NULL NULL 14 0 39% 75.44 0.0
02 19:55 E 7 16.09 NULL NULL 15 -1 34% 75.41 0.0
02 19:35 SE 9 16.09 NULL NULL 16 -2 29% 75.46 0.0
02 19:15 S 11 16.09 NULL NULL 17 -1 30% 75.46 0.0
02 18:55 S 11 16.09 NULL NULL 17 -2 27% 75.46 0.0
02 18:35 S 13 16.09 NULL NULL 17 -2 27% 75.49 0.0
02 18:15 S 11 16.09 NULL NULL 17 -1 30% 75.51 0.0
02 17:55 SW 13 16.09 NULL NULL 17 -1 30% 75.54 0.0
02 17:35 SW 19 16.09 NULL NULL 17 -1 30% 75.54 0.0
02 17:15 SW 7 16.09 NULL NULL 16 -1 31% 75.57 0.0
02 16:55 SW 13 16.09 Light Rain NULL 16 -1 31% 75.59 0.0
02 16:35 W 15 16.09 NULL NULL 16 -2 29% 75.62 0.0
02 16:15 S 9 16.09 NULL NULL 17 -2 27% 75.62 0.0
02 15:55 SW 13 16.09 NULL NULL 17 -2 27% 75.64 0.0
02 15:35 SW 13 16.09 NULL NULL 16 -2 29% 75.67 0.0
02 15:15 Calm 16.09 Light Rain NULL 15 -2 31% 75.69 0.0
02 14:55 W 26 G 46 16.09 NULL NULL 17 -3 25% 75.72 0.0
02 14:35 W 22 G 35 16.09 NULL NULL 18 -2 26% 75.72 0.0
02 14:15 SW 20 16.09 NULL NULL 18 -1 28% 75.74 0.0
02 13:55 SW 30 16.09 NULL NULL 17 0 32% 75.77 0.0
02 13:35 SW 19 16.09 NULL NULL 16 -1 31% 75.79 0.0
02 12:55 SW 20 16.09 NULL NULL 15 -1 34% 75.82 0.0
02 12:35 SW 19 G 28 16.09 NULL NULL 15 -1 34% 75.84 0.0
02 12:15 SW 19 16.09 NULL NULL 15 -1 34% 75.87 0.0
02 11:55 W 20 G 31 16.09 NULL NULL 14 -2 33% 75.87 0.0
02 11:35 W 19 16.09 NULL NULL 14 -2 33% 75.9 0.0
02 11:15 W 26 16.09 NULL NULL 14 -2 33% 75.9 0.0
02 10:55 SW 19 16.09 NULL NULL 13 -2 36% 75.92 0.0
02 10:35 SW 20 G 26 16.09 NULL NULL 13 -2 36% 75.95 0.0
02 10:15 SW 24 G 31 16.09 NULL NULL 12 -1 41% 75.95 0.0
02 09:55 SW 26 16.09 NULL NULL 11 -1 44% 75.97 0.0
02 09:35 SW 28 G 37 16.09 NULL NULL 9 -2 46% 6 76 0.0
02 09:15 SW 30 G 35 16.09 NULL NULL 8 -2 50% 4 76 0.0
02 08:55 SW 26 G 35 16.09 NULL NULL 8 -2 50% 5 76.02 0.0
02 08:35 SW 22 G 30 16.09 NULL NULL 7 -3 49% 4 76.05 0.0
02 08:15 S 24 16.09 NULL NULL 6 -3 53% 2 76.05 0.0
02 07:55 SW 26 G 35 16.09 NULL NULL 6 -3 53% 2 76.07 0.0
02 07:35 S 20 16.09 NULL NULL 5 -3 57% 1 76.1 0.0
02 07:15 S 17 16.09 NULL NULL 3 -3 65% -1 76.1 0.0
02 06:55 S 17 16.09 NULL NULL 3 -3 65% -1 76.12 0.0
02 06:35 S 15 16.09 NULL NULL 2 -4 65% -2 76.15 0.0
02 06:15 S 13 16.09 NULL NULL 1 -4 70% -2 76.15 0.0
02 05:55 S 13 16.09 NULL NULL 0 -4 75% -4 76.17 0.0
02 05:35 S 13 16.09 NULL NULL 0 -5 69% -4 76.2 0.0
02 05:15 S 13 16.09 NULL NULL 0 -5 69% -4 76.23 0.0
02 04:55 S 13 16.09 NULL NULL 0 -5 69% -4 76.23 0.0
02 04:35 S 11 16.09 NULL NULL 0 -5 69% -3 76.25 0.0
02 04:15 S 13 16.09 NULL NULL 0 -5 69% -4 76.25 0.0
02 03:55 S 11 16.09 NULL NULL 1 -5 65% -2 76.28 0.0
02 03:35 S 11 16.09 NULL NULL -1 -5 75% -4 76.28 0.0
02 03:15 S 11 16.09 NULL NULL -1 -5 75% -4 76.28 0.0
02 02:55 S 9 16.09 NULL NULL -1 -5 75% -4 76.3 0.0
02 02:35 S 9 16.09 NULL NULL -1 -5 75% -4 76.3 0.0
02 02:15 S 7 16.09 NULL NULL 1 -5 65% -1 76.33 0.0
02 01:55 S 7 16.09 NULL NULL 2 -5 60% 0 76.33 0.0
02 01:35 S 7 16.09 NULL NULL -1 -5 75% -3 76.35 0.0
02 01:15 S 6 16.09 NULL NULL -1 -4 80% 76.35 0.0
02 00:55 Calm 16.09 NULL NULL 0 -3 80% 76.35 0.0
02 00:35 Calm 16.09 NULL NULL 0 -4 75% 76.35 0.0
02 00:15 Calm 16.09 NULL NULL 1 -3 75% 76.35 0.0
01 23:55 Calm 16.09 NULL NULL 0 -4 75% 76.35 0.0
01 23:35 Calm 16.09 NULL NULL 2 -4 65% 76.38 0.0
01 23:15 Calm 16.09 NULL NULL 1 -3 75% 76.38 0.0
01 22:55 Calm 16.09 NULL NULL 2 -4 65% 76.38 0.0
01 22:35 Calm 16.09 NULL NULL 3 -6 52% 76.4 0.0
01 22:15 Calm 16.09 NULL NULL 4 -6 48% 76.4 0.0
01 21:55 Calm 16.09 NULL NULL 5 -7 42% 76.4 0.0
01 21:35 Calm 16.09 NULL NULL 6 -7 39% 76.4 0.0
01 21:15 Calm 16.09 NULL NULL 7 -3 49% 76.4 0.0
01 20:55 W 6 16.09 NULL NULL 7 -5 43% 76.4 0.0
01 20:35 NW 6 16.09 NULL NULL 8 -7 34% 76.38 0.0
01 20:15 NW 7 16.09 NULL NULL 9 -7 32% 8 76.38 0.0
01 19:55 W 7 16.09 NULL NULL 10 -7 30% 9 76.38 0.0
01 19:35 N 7 16.09 NULL NULL 10 -7 30% 9 76.38 0.0
01 19:15 NW 9 16.09 NULL NULL 11 -7 28% 76.4 0.0
01 18:55 NW 7 16.09 NULL NULL 11 -7 28% 76.4 0.0
01 18:35 NW 9 16.09 NULL NULL 11 -7 28% 76.4 0.0
01 18:15 NW 11 16.09 NULL NULL 11 -8 26% 76.4 0.0
01 17:55 N 7 16.09 NULL NULL 11 -8 26% 76.4 0.0
01 17:35 Calm 16.09 NULL NULL 11 -8 26% 76.4 0.0
01 17:15 W 7 16.09 NULL NULL 11 -8 26% 76.4 0.0
01 16:55 NW 13 16.09 NULL NULL 11 -7 28% 76.43 0.0
01 16:35 N 13 16.09 NULL NULL 11 -7 28% 76.4 0.0
01 16:15 N 13 16.09 NULL NULL 11 -8 26% 76.43 0.0
01 15:55 N 11 16.09 NULL NULL 11 -7 28% 76.45 0.0
01 15:35 NW 13 16.09 NULL NULL 10 -7 30% 8 76.45 0.0
01 15:15 NW 15 16.09 NULL NULL 11 -6 30% 76.48 0.0
01 14:55 W 13 16.09 NULL NULL 9 -7 32% 7 76.48 0.0
01 14:35 W 13 16.09 NULL NULL 9 -6 34% 7 76.48 0.0
01 14:15 NE 7 16.09 NULL NULL 10 -7 30% 9 76.48 0.0
01 13:55 NW 13 16.09 NULL NULL 9 -7 32% 7 76.48 0.0
01 13:35 NW 11 16.09 NULL NULL 9 -7 32% 8 76.5 0.0
01 13:15 N 13 16.09 NULL NULL 8 -7 34% 6 76.5 0.0
01 12:55 N 11 16.09 NULL NULL 8 -7 34% 6 76.53 0.0
01 12:35 N 6 G 15 16.09 NULL NULL 8 -7 34% 76.53 0.0
01 12:15 W 11 16.09 NULL NULL 8 -6 37% 6 76.53 0.0
01 11:55 N 17 16.09 NULL NULL 8 -6 37% 6 76.53 0.0
01 11:35 Calm 16.09 NULL NULL 7 -9 31% 76.53 0.0
01 11:15 NW 7 16.09 NULL NULL 6 -7 39% 5 76.53 0.0
01 10:55 NW 15 16.09 NULL NULL 7 -6 39% 5 76.56 0.0
01 10:35 N 9 G 15 16.09 NULL NULL 6 -6 42% 4 76.56 0.0
01 10:15 NW 13 16.09 NULL NULL 6 -6 42% 4 76.56 0.0
01 09:55 NW 11 16.09 NULL NULL 6 -6 42% 4 76.56 0.0
01 09:35 Calm 16.09 NULL NULL 4 -4 56% 76.56 0.0
01 09:15 Calm 16.09 NULL NULL 3 -4 60% 76.56 0.0
01 08:55 Calm 16.09 NULL NULL 2 -4 65% 76.56 0.0
01 08:35 Calm 16.09 NULL NULL 1 -4 70% 76.56 0.0
01 08:15 Calm 16.09 NULL NULL 0 -4 75% 76.53 0.0
01 07:55 N 6 16.09 NULL NULL -1 -4 80% 76.53 0.0
01 07:35 Calm 16.09 NULL NULL -2 -4 86% 76.53 0.0
01 07:15 Calm 16.09 NULL NULL -3 -5 86% 76.5 0.0
01 06:55 Calm 16.09 NULL NULL -4 -6 86% 76.5 0.0
01 06:35 Calm 16.09 NULL NULL -4 -7 80% 76.5 0.0
01 06:15 Calm 16.09 NULL NULL -4 -7 80% 76.48 0.0
01 05:55 Calm 16.09 NULL NULL -3 -6 80% 76.48 0.0
01 05:35 Calm 16.09 NULL NULL -4 -6 86% 76.48 0.0
01 05:15 Calm 16.09 NULL NULL -3 -6 80% 76.48 0.0
01 04:55 Calm 16.09 NULL NULL -3 -6 80% 76.48 0.0
Date Time (cdt) Wind (kph) Vis. (km) Weather Sky Cond. Air Dwpt Max. Min. Relative Humidity Wind Chill (°C) Heat Index (°C) altimeter (cm) sea level (mb) 1 hr 3 hr 6 hr
6 hour
Temperature (ºC) Pressure Precipitation (cm)